Погода в Червоном

Беларусь     52°21′43″N   27°54′32″E
темп.,
°C
ветер,
м/с
пор.,
м/с
влажн.,
%
обл.,
%
осадки,
мм/ч
давл.,
гПа
погр.,
м
12 мая, ср
ср1200:00+12в39925 0.0 1019161
03:00+12вюв413930 0.0 1018373
06:00+11вюв4119723 0.0 1018436
09:00+13вюв69701 0.0 1019909
12:00+15вюв79490 0.0 10181373
15:00+17вюв68445 0.0 10171812
18:00+17вюв474997 0.0 10152254
21:00+11вюв227711 0.0 101426
13 мая, чт
чт1300:00+8ююв228527 0.0 101325
03:00+8ююв2385100 0.1 1011102
06:00+8вюв2693100 1.2 1010267
09:00+9вюв3791100 1.6 1009363
12:00+11юв4782100 0.8 1009832
15:00+13ююв5873100 1.8 10071064
18:00+12юв4969100 0.3 1007641
21:00+11юв51177100 0.3 1007614
14 мая, пт
пт1400:00+10юв61486100 0.3 1006642
03:00+10юв5129284 0.3 1006557
06:00+11ююв51090100 0.0 1005646
09:00+11ююв5109087 0.1 1006526
12:00+13ююв478253 0.0 1006652
15:00+18ю466272 0.4 10051190
18:00+19ююз3561100 0.2 1005860
21:00+13з228470 0.3 100618
15 мая, сб
сб1500:00+12зсз2290100 0.0 100733
03:00+11зюз2393100 0.0 100771
06:00+10зюз2798100 0.3 1007260
09:00+12зюз479097 0.4 1008486
12:00+15юз456765 0.0 10091027
15:00+17зюз465687 0.0 10091592
18:00+15зюз4672100 0.2 1009737
21:00+12зюз268399 0.3 1010216
16 мая, вс
вс1600:00+9зюз24952 0.0 101167
03:00+8зюз22969 0.0 101126
06:00+8сз23953 0.0 101262
09:00+14ю217112 0.0 1013433
12:00+19юв115389 0.0 10121081
15:00+21юв224378 0.0 10111630
18:00+21в3552100 0.0 1010916
21:00+15в397715 0.0 1010165